Index of /20260430/WXO-DD/model_rdps/10km/00/067
Name Last modified Size Description
Parent Directory -
20260430T00Z_MSC_RDPS_AbsoluteVorticity_IsbL-0250_RLatLon0.09_PT067H.grib2 2026-04-30 03:00 602K
20260430T00Z_MSC_RDPS_AbsoluteVorticity_IsbL-0500_RLatLon0.09_PT067H.grib2 2026-04-30 03:00 557K
20260430T00Z_MSC_RDPS_AbsoluteVorticity_IsbL-0700_RLatLon0.09_PT067H.grib2 2026-04-30 03:00 619K
20260430T00Z_MSC_RDPS_AbsoluteVorticity_IsbL-0850_RLatLon0.09_PT067H.grib2 2026-04-30 03:00 775K
20260430T00Z_MSC_RDPS_AirTemp_AGL-120m_RLatLon0.09_PT067H.grib2 2026-04-30 03:00 394K
20260430T00Z_MSC_RDPS_AirTemp_AGL-2m_RLatLon0.09_PT067H.grib2 2026-04-30 03:00 632K
20260430T00Z_MSC_RDPS_AirTemp_AGL-40m_RLatLon0.09_PT067H.grib2 2026-04-30 03:00 403K
20260430T00Z_MSC_RDPS_AirTemp_AGL-80m_RLatLon0.09_PT067H.grib2 2026-04-30 03:00 398K
20260430T00Z_MSC_RDPS_AirTemp_IsbL-0001_RLatLon0.09_PT067H.grib2 2026-04-30 03:00 280K
20260430T00Z_MSC_RDPS_AirTemp_IsbL-0005_RLatLon0.09_PT067H.grib2 2026-04-30 03:00 290K
20260430T00Z_MSC_RDPS_AirTemp_IsbL-0010_RLatLon0.09_PT067H.grib2 2026-04-30 03:00 299K
20260430T00Z_MSC_RDPS_AirTemp_IsbL-0020_RLatLon0.09_PT067H.grib2 2026-04-30 03:00 408K
20260430T00Z_MSC_RDPS_AirTemp_IsbL-0030_RLatLon0.09_PT067H.grib2 2026-04-30 03:00 338K
20260430T00Z_MSC_RDPS_AirTemp_IsbL-0050_RLatLon0.09_PT067H.grib2 2026-04-30 03:00 313K
20260430T00Z_MSC_RDPS_AirTemp_IsbL-0100_RLatLon0.09_PT067H.grib2 2026-04-30 03:00 422K
20260430T00Z_MSC_RDPS_AirTemp_IsbL-0150_RLatLon0.09_PT067H.grib2 2026-04-30 03:00 417K
20260430T00Z_MSC_RDPS_AirTemp_IsbL-0175_RLatLon0.09_PT067H.grib2 2026-04-30 03:00 409K
20260430T00Z_MSC_RDPS_AirTemp_IsbL-0200_RLatLon0.09_PT067H.grib2 2026-04-30 03:00 412K
20260430T00Z_MSC_RDPS_AirTemp_IsbL-0225_RLatLon0.09_PT067H.grib2 2026-04-30 03:00 413K
20260430T00Z_MSC_RDPS_AirTemp_IsbL-0250_RLatLon0.09_PT067H.grib2 2026-04-30 03:00 418K
20260430T00Z_MSC_RDPS_AirTemp_IsbL-0275_RLatLon0.09_PT067H.grib2 2026-04-30 03:00 398K
20260430T00Z_MSC_RDPS_AirTemp_IsbL-0300_RLatLon0.09_PT067H.grib2 2026-04-30 03:00 406K
20260430T00Z_MSC_RDPS_AirTemp_IsbL-0350_RLatLon0.09_PT067H.grib2 2026-04-30 03:00 420K
20260430T00Z_MSC_RDPS_AirTemp_IsbL-0400_RLatLon0.09_PT067H.grib2 2026-04-30 03:00 421K
20260430T00Z_MSC_RDPS_AirTemp_IsbL-0450_RLatLon0.09_PT067H.grib2 2026-04-30 03:00 394K
20260430T00Z_MSC_RDPS_AirTemp_IsbL-0500_RLatLon0.09_PT067H.grib2 2026-04-30 03:00 405K
20260430T00Z_MSC_RDPS_AirTemp_IsbL-0550_RLatLon0.09_PT067H.grib2 2026-04-30 03:00 422K
20260430T00Z_MSC_RDPS_AirTemp_IsbL-0600_RLatLon0.09_PT067H.grib2 2026-04-30 03:00 440K
20260430T00Z_MSC_RDPS_AirTemp_IsbL-0650_RLatLon0.09_PT067H.grib2 2026-04-30 03:00 457K
20260430T00Z_MSC_RDPS_AirTemp_IsbL-0700_RLatLon0.09_PT067H.grib2 2026-04-30 03:00 380K
20260430T00Z_MSC_RDPS_AirTemp_IsbL-0750_RLatLon0.09_PT067H.grib2 2026-04-30 03:00 415K
20260430T00Z_MSC_RDPS_AirTemp_IsbL-0800_RLatLon0.09_PT067H.grib2 2026-04-30 03:00 456K
20260430T00Z_MSC_RDPS_AirTemp_IsbL-0850_RLatLon0.09_PT067H.grib2 2026-04-30 03:00 503K
20260430T00Z_MSC_RDPS_AirTemp_IsbL-0875_RLatLon0.09_PT067H.grib2 2026-04-30 03:00 523K
20260430T00Z_MSC_RDPS_AirTemp_IsbL-0900_RLatLon0.09_PT067H.grib2 2026-04-30 03:00 534K
20260430T00Z_MSC_RDPS_AirTemp_IsbL-0925_RLatLon0.09_PT067H.grib2 2026-04-30 03:00 529K
20260430T00Z_MSC_RDPS_AirTemp_IsbL-0950_RLatLon0.09_PT067H.grib2 2026-04-30 03:00 532K
20260430T00Z_MSC_RDPS_AirTemp_IsbL-0970_RLatLon0.09_PT067H.grib2 2026-04-30 03:00 529K
20260430T00Z_MSC_RDPS_AirTemp_IsbL-0985_RLatLon0.09_PT067H.grib2 2026-04-30 03:00 520K
20260430T00Z_MSC_RDPS_AirTemp_IsbL-1000_RLatLon0.09_PT067H.grib2 2026-04-30 03:00 505K
20260430T00Z_MSC_RDPS_AirTemp_IsbL-1015_RLatLon0.09_PT067H.grib2 2026-04-30 03:00 501K
20260430T00Z_MSC_RDPS_Albedo_Sfc_RLatLon0.09_PT067H.grib2 2026-04-30 03:00 157K
20260430T00Z_MSC_RDPS_CAPE_Sfc_RLatLon0.09_PT067H.grib2 2026-04-30 03:00 1.7M
20260430T00Z_MSC_RDPS_CIN_Sfc_RLatLon0.09_PT067H.grib2 2026-04-30 03:00 1.1M
20260430T00Z_MSC_RDPS_CloudWater_EAtm_RLatLon0.09_PT067H.grib2 2026-04-30 03:00 221K
20260430T00Z_MSC_RDPS_ConvectivePrecip-Accum_Sfc_RLatLon0.09_PT067H.grib2 2026-04-30 03:00 1.2M
20260430T00Z_MSC_RDPS_DewPointDepression_AGL-2m_RLatLon0.09_PT067H.grib2 2026-04-30 03:00 422K
20260430T00Z_MSC_RDPS_DewPointDepression_IsbL-0001_RLatLon0.09_PT067H.grib2 2026-04-30 03:00 193
20260430T00Z_MSC_RDPS_DewPointDepression_IsbL-0005_RLatLon0.09_PT067H.grib2 2026-04-30 03:00 193
20260430T00Z_MSC_RDPS_DewPointDepression_IsbL-0010_RLatLon0.09_PT067H.grib2 2026-04-30 03:00 193
20260430T00Z_MSC_RDPS_DewPointDepression_IsbL-0020_RLatLon0.09_PT067H.grib2 2026-04-30 03:00 193
20260430T00Z_MSC_RDPS_DewPointDepression_IsbL-0030_RLatLon0.09_PT067H.grib2 2026-04-30 03:00 193
20260430T00Z_MSC_RDPS_DewPointDepression_IsbL-0050_RLatLon0.09_PT067H.grib2 2026-04-30 03:00 77K
20260430T00Z_MSC_RDPS_DewPointDepression_IsbL-0100_RLatLon0.09_PT067H.grib2 2026-04-30 03:00 125K
20260430T00Z_MSC_RDPS_DewPointDepression_IsbL-0150_RLatLon0.09_PT067H.grib2 2026-04-30 03:00 153K
20260430T00Z_MSC_RDPS_DewPointDepression_IsbL-0175_RLatLon0.09_PT067H.grib2 2026-04-30 03:00 188K
20260430T00Z_MSC_RDPS_DewPointDepression_IsbL-0200_RLatLon0.09_PT067H.grib2 2026-04-30 03:00 219K
20260430T00Z_MSC_RDPS_DewPointDepression_IsbL-0225_RLatLon0.09_PT067H.grib2 2026-04-30 03:00 254K
20260430T00Z_MSC_RDPS_DewPointDepression_IsbL-0250_RLatLon0.09_PT067H.grib2 2026-04-30 03:00 293K
20260430T00Z_MSC_RDPS_DewPointDepression_IsbL-0275_RLatLon0.09_PT067H.grib2 2026-04-30 03:00 303K
20260430T00Z_MSC_RDPS_DewPointDepression_IsbL-0300_RLatLon0.09_PT067H.grib2 2026-04-30 03:00 320K
20260430T00Z_MSC_RDPS_DewPointDepression_IsbL-0350_RLatLon0.09_PT067H.grib2 2026-04-30 03:00 328K
20260430T00Z_MSC_RDPS_DewPointDepression_IsbL-0400_RLatLon0.09_PT067H.grib2 2026-04-30 03:00 340K
20260430T00Z_MSC_RDPS_DewPointDepression_IsbL-0450_RLatLon0.09_PT067H.grib2 2026-04-30 03:00 345K
20260430T00Z_MSC_RDPS_DewPointDepression_IsbL-0500_RLatLon0.09_PT067H.grib2 2026-04-30 03:00 351K
20260430T00Z_MSC_RDPS_DewPointDepression_IsbL-0550_RLatLon0.09_PT067H.grib2 2026-04-30 03:00 363K
20260430T00Z_MSC_RDPS_DewPointDepression_IsbL-0600_RLatLon0.09_PT067H.grib2 2026-04-30 03:00 376K
20260430T00Z_MSC_RDPS_DewPointDepression_IsbL-0650_RLatLon0.09_PT067H.grib2 2026-04-30 03:00 384K
20260430T00Z_MSC_RDPS_DewPointDepression_IsbL-0700_RLatLon0.09_PT067H.grib2 2026-04-30 03:00 398K
20260430T00Z_MSC_RDPS_DewPointDepression_IsbL-0750_RLatLon0.09_PT067H.grib2 2026-04-30 03:00 419K
20260430T00Z_MSC_RDPS_DewPointDepression_IsbL-0800_RLatLon0.09_PT067H.grib2 2026-04-30 03:00 448K
20260430T00Z_MSC_RDPS_DewPointDepression_IsbL-0850_RLatLon0.09_PT067H.grib2 2026-04-30 03:00 476K
20260430T00Z_MSC_RDPS_DewPointDepression_IsbL-0875_RLatLon0.09_PT067H.grib2 2026-04-30 03:00 480K
20260430T00Z_MSC_RDPS_DewPointDepression_IsbL-0900_RLatLon0.09_PT067H.grib2 2026-04-30 03:00 470K
20260430T00Z_MSC_RDPS_DewPointDepression_IsbL-0925_RLatLon0.09_PT067H.grib2 2026-04-30 03:00 454K
20260430T00Z_MSC_RDPS_DewPointDepression_IsbL-0950_RLatLon0.09_PT067H.grib2 2026-04-30 03:00 448K
20260430T00Z_MSC_RDPS_DewPointDepression_IsbL-0970_RLatLon0.09_PT067H.grib2 2026-04-30 03:00 442K
20260430T00Z_MSC_RDPS_DewPointDepression_IsbL-0985_RLatLon0.09_PT067H.grib2 2026-04-30 03:00 438K
20260430T00Z_MSC_RDPS_DewPointDepression_IsbL-1000_RLatLon0.09_PT067H.grib2 2026-04-30 03:00 433K
20260430T00Z_MSC_RDPS_DewPointDepression_IsbL-1015_RLatLon0.09_PT067H.grib2 2026-04-30 03:00 425K
20260430T00Z_MSC_RDPS_DewPoint_AGL-2m_RLatLon0.09_PT067H.grib2 2026-04-30 03:00 400K
20260430T00Z_MSC_RDPS_DownwardLongwaveRadiationFlux-Accum_Sfc_RLatLon0.09_PT067H.grib2 2026-04-30 03:00 416K
20260430T00Z_MSC_RDPS_DownwardShortwaveRadiationFlux-Accum_NTAtm_RLatLon0.09_PT067H.grib2 2026-04-30 03:00 163K
20260430T00Z_MSC_RDPS_DownwardShortwaveRadiationFlux-Accum_Sfc_RLatLon0.09_PT067H.grib2 2026-04-30 03:00 602K
20260430T00Z_MSC_RDPS_FreezingRain-Accum1h_Sfc_RLatLon0.09_PT067H.grib2 2026-04-30 03:00 17K
20260430T00Z_MSC_RDPS_FreezingRain-Accum_Sfc_RLatLon0.09_PT067H.grib2 2026-04-30 03:00 208K
20260430T00Z_MSC_RDPS_GeopotentialHeight_IsbL-0001_RLatLon0.09_PT067H.grib2 2026-04-30 03:00 243K
20260430T00Z_MSC_RDPS_GeopotentialHeight_IsbL-0005_RLatLon0.09_PT067H.grib2 2026-04-30 03:00 338K
20260430T00Z_MSC_RDPS_GeopotentialHeight_IsbL-0010_RLatLon0.09_PT067H.grib2 2026-04-30 03:00 306K
20260430T00Z_MSC_RDPS_GeopotentialHeight_IsbL-0020_RLatLon0.09_PT067H.grib2 2026-04-30 03:00 306K
20260430T00Z_MSC_RDPS_GeopotentialHeight_IsbL-0030_RLatLon0.09_PT067H.grib2 2026-04-30 03:00 308K
20260430T00Z_MSC_RDPS_GeopotentialHeight_IsbL-0050_RLatLon0.09_PT067H.grib2 2026-04-30 03:00 308K
20260430T00Z_MSC_RDPS_GeopotentialHeight_IsbL-0100_RLatLon0.09_PT067H.grib2 2026-04-30 03:00 285K
20260430T00Z_MSC_RDPS_GeopotentialHeight_IsbL-0150_RLatLon0.09_PT067H.grib2 2026-04-30 03:00 229K
20260430T00Z_MSC_RDPS_GeopotentialHeight_IsbL-0175_RLatLon0.09_PT067H.grib2 2026-04-30 03:00 232K
20260430T00Z_MSC_RDPS_GeopotentialHeight_IsbL-0200_RLatLon0.09_PT067H.grib2 2026-04-30 03:00 264K
20260430T00Z_MSC_RDPS_GeopotentialHeight_IsbL-0225_RLatLon0.09_PT067H.grib2 2026-04-30 03:00 266K
20260430T00Z_MSC_RDPS_GeopotentialHeight_IsbL-0250_RLatLon0.09_PT067H.grib2 2026-04-30 03:00 265K
20260430T00Z_MSC_RDPS_GeopotentialHeight_IsbL-0275_RLatLon0.09_PT067H.grib2 2026-04-30 03:00 263K
20260430T00Z_MSC_RDPS_GeopotentialHeight_IsbL-0300_RLatLon0.09_PT067H.grib2 2026-04-30 03:00 262K
20260430T00Z_MSC_RDPS_GeopotentialHeight_IsbL-0350_RLatLon0.09_PT067H.grib2 2026-04-30 03:00 228K
20260430T00Z_MSC_RDPS_GeopotentialHeight_IsbL-0400_RLatLon0.09_PT067H.grib2 2026-04-30 03:00 225K
20260430T00Z_MSC_RDPS_GeopotentialHeight_IsbL-0450_RLatLon0.09_PT067H.grib2 2026-04-30 03:00 294K
20260430T00Z_MSC_RDPS_GeopotentialHeight_IsbL-0500_RLatLon0.09_PT067H.grib2 2026-04-30 03:00 290K
20260430T00Z_MSC_RDPS_GeopotentialHeight_IsbL-0550_RLatLon0.09_PT067H.grib2 2026-04-30 03:00 287K
20260430T00Z_MSC_RDPS_GeopotentialHeight_IsbL-0600_RLatLon0.09_PT067H.grib2 2026-04-30 03:00 286K
20260430T00Z_MSC_RDPS_GeopotentialHeight_IsbL-0650_RLatLon0.09_PT067H.grib2 2026-04-30 03:00 256K
20260430T00Z_MSC_RDPS_GeopotentialHeight_IsbL-0700_RLatLon0.09_PT067H.grib2 2026-04-30 03:00 256K
20260430T00Z_MSC_RDPS_GeopotentialHeight_IsbL-0750_RLatLon0.09_PT067H.grib2 2026-04-30 03:00 260K
20260430T00Z_MSC_RDPS_GeopotentialHeight_IsbL-0800_RLatLon0.09_PT067H.grib2 2026-04-30 03:00 350K
20260430T00Z_MSC_RDPS_GeopotentialHeight_IsbL-0850_RLatLon0.09_PT067H.grib2 2026-04-30 03:00 358K
20260430T00Z_MSC_RDPS_GeopotentialHeight_IsbL-0875_RLatLon0.09_PT067H.grib2 2026-04-30 03:00 362K
20260430T00Z_MSC_RDPS_GeopotentialHeight_IsbL-0900_RLatLon0.09_PT067H.grib2 2026-04-30 03:00 365K
20260430T00Z_MSC_RDPS_GeopotentialHeight_IsbL-0925_RLatLon0.09_PT067H.grib2 2026-04-30 03:00 370K
20260430T00Z_MSC_RDPS_GeopotentialHeight_IsbL-0950_RLatLon0.09_PT067H.grib2 2026-04-30 03:00 374K
20260430T00Z_MSC_RDPS_GeopotentialHeight_IsbL-0970_RLatLon0.09_PT067H.grib2 2026-04-30 03:00 380K
20260430T00Z_MSC_RDPS_GeopotentialHeight_IsbL-0985_RLatLon0.09_PT067H.grib2 2026-04-30 03:00 389K
20260430T00Z_MSC_RDPS_GeopotentialHeight_IsbL-1000_RLatLon0.09_PT067H.grib2 2026-04-30 03:00 402K
20260430T00Z_MSC_RDPS_GeopotentialHeight_IsbL-1015_RLatLon0.09_PT067H.grib2 2026-04-30 03:00 417K
20260430T00Z_MSC_RDPS_Humidex_Sfc_RLatLon0.09_PT067H.grib2 2026-04-30 03:00 2.4M
20260430T00Z_MSC_RDPS_IcePellets-Accum1h_Sfc_RLatLon0.09_PT067H.grib2 2026-04-30 03:00 7.1K
20260430T00Z_MSC_RDPS_IcePellets-Accum_Sfc_RLatLon0.09_PT067H.grib2 2026-04-30 03:00 36K
20260430T00Z_MSC_RDPS_KIndex_Sfc_RLatLon0.09_PT067H.grib2 2026-04-30 03:00 2.5M
20260430T00Z_MSC_RDPS_LatentHeatNetFlux_Sfc_RLatLon0.09_PT067H.grib2 2026-04-30 03:00 308K
20260430T00Z_MSC_RDPS_LiftedIndex-MU-VT_IsbL-0500_RLatLon0.09_PT067H.grib2 2026-04-30 03:00 2.4M
20260430T00Z_MSC_RDPS_NetLongwaveRadiationFlux-Accum_Sfc_RLatLon0.09_PT067H.grib2 2026-04-30 03:00 595K
20260430T00Z_MSC_RDPS_NetShortwaveRadiationFlux-Accum_Sfc_RLatLon0.09_PT067H.grib2 2026-04-30 03:00 604K
20260430T00Z_MSC_RDPS_PlanetaryBoundaryLayerHeight_Sfc_RLatLon0.09_PT067H.grib2 2026-04-30 03:00 1.0M
20260430T00Z_MSC_RDPS_Precip-Accum1h_Sfc_RLatLon0.09_PT067H.grib2 2026-04-30 03:00 1.2M
20260430T00Z_MSC_RDPS_Precip-Accum_Sfc_RLatLon0.09_PT067H.grib2 2026-04-30 03:00 2.1M
20260430T00Z_MSC_RDPS_PrecipRate_Sfc_RLatLon0.09_PT067H.grib2 2026-04-30 03:00 184K
20260430T00Z_MSC_RDPS_PrecipType-Instant_Sfc_RLatLon0.09_PT067H.grib2 2026-04-30 03:00 585K
20260430T00Z_MSC_RDPS_Pressure-Trend3h_Sfc_RLatLon0.09_PT067H.grib2 2026-04-30 03:00 1.2M
20260430T00Z_MSC_RDPS_Pressure_MSL_RLatLon0.09_PT067H.grib2 2026-04-30 03:00 331K
20260430T00Z_MSC_RDPS_Pressure_PVU-1.5_RLatLon0.09_PT067H.grib2 2026-04-30 03:00 2.5M
20260430T00Z_MSC_RDPS_Pressure_PVU-1_RLatLon0.09_PT067H.grib2 2026-04-30 03:00 2.4M
20260430T00Z_MSC_RDPS_Pressure_PVU-2_RLatLon0.09_PT067H.grib2 2026-04-30 03:00 2.4M
20260430T00Z_MSC_RDPS_Pressure_Sfc_RLatLon0.09_PT067H.grib2 2026-04-30 03:00 499K
20260430T00Z_MSC_RDPS_RadiativeTemp_Sfc_RLatLon0.09_PT067H.grib2 2026-04-30 03:00 333K
20260430T00Z_MSC_RDPS_Rain-Accum1h_Sfc_RLatLon0.09_PT067H.grib2 2026-04-30 03:00 602K
20260430T00Z_MSC_RDPS_Rain-Accum_Sfc_RLatLon0.09_PT067H.grib2 2026-04-30 03:00 1.7M
20260430T00Z_MSC_RDPS_RelativeHumidity_AGL-2m_RLatLon0.09_PT067H.grib2 2026-04-30 03:00 1.0M
20260430T00Z_MSC_RDPS_RelativeHumidity_IsbL-0010_RLatLon0.09_PT067H.grib2 2026-04-30 03:00 614K
20260430T00Z_MSC_RDPS_RelativeHumidity_IsbL-0020_RLatLon0.09_PT067H.grib2 2026-04-30 03:00 659K
20260430T00Z_MSC_RDPS_RelativeHumidity_IsbL-0030_RLatLon0.09_PT067H.grib2 2026-04-30 03:00 602K
20260430T00Z_MSC_RDPS_RelativeHumidity_IsbL-0050_RLatLon0.09_PT067H.grib2 2026-04-30 03:00 362K
20260430T00Z_MSC_RDPS_RelativeHumidity_IsbL-0100_RLatLon0.09_PT067H.grib2 2026-04-30 03:00 274K
20260430T00Z_MSC_RDPS_RelativeHumidity_IsbL-0150_RLatLon0.09_PT067H.grib2 2026-04-30 03:00 408K
20260430T00Z_MSC_RDPS_RelativeHumidity_IsbL-0175_RLatLon0.09_PT067H.grib2 2026-04-30 03:00 474K
20260430T00Z_MSC_RDPS_RelativeHumidity_IsbL-0200_RLatLon0.09_PT067H.grib2 2026-04-30 03:00 550K
20260430T00Z_MSC_RDPS_RelativeHumidity_IsbL-0225_RLatLon0.09_PT067H.grib2 2026-04-30 03:00 616K
20260430T00Z_MSC_RDPS_RelativeHumidity_IsbL-0250_RLatLon0.09_PT067H.grib2 2026-04-30 03:00 681K
20260430T00Z_MSC_RDPS_RelativeHumidity_IsbL-0275_RLatLon0.09_PT067H.grib2 2026-04-30 03:00 704K
20260430T00Z_MSC_RDPS_RelativeHumidity_IsbL-0300_RLatLon0.09_PT067H.grib2 2026-04-30 03:00 742K
20260430T00Z_MSC_RDPS_RelativeHumidity_IsbL-0350_RLatLon0.09_PT067H.grib2 2026-04-30 03:00 765K
20260430T00Z_MSC_RDPS_RelativeHumidity_IsbL-0400_RLatLon0.09_PT067H.grib2 2026-04-30 03:00 783K
20260430T00Z_MSC_RDPS_RelativeHumidity_IsbL-0450_RLatLon0.09_PT067H.grib2 2026-04-30 03:00 790K
20260430T00Z_MSC_RDPS_RelativeHumidity_IsbL-0500_RLatLon0.09_PT067H.grib2 2026-04-30 03:00 796K
20260430T00Z_MSC_RDPS_RelativeHumidity_IsbL-0550_RLatLon0.09_PT067H.grib2 2026-04-30 03:00 816K
20260430T00Z_MSC_RDPS_RelativeHumidity_IsbL-0600_RLatLon0.09_PT067H.grib2 2026-04-30 03:00 839K
20260430T00Z_MSC_RDPS_RelativeHumidity_IsbL-0650_RLatLon0.09_PT067H.grib2 2026-04-30 03:00 860K
20260430T00Z_MSC_RDPS_RelativeHumidity_IsbL-0700_RLatLon0.09_PT067H.grib2 2026-04-30 03:00 888K
20260430T00Z_MSC_RDPS_RelativeHumidity_IsbL-0750_RLatLon0.09_PT067H.grib2 2026-04-30 03:00 931K
20260430T00Z_MSC_RDPS_RelativeHumidity_IsbL-0800_RLatLon0.09_PT067H.grib2 2026-04-30 03:00 1.0M
20260430T00Z_MSC_RDPS_RelativeHumidity_IsbL-0850_RLatLon0.09_PT067H.grib2 2026-04-30 03:00 1.0M
20260430T00Z_MSC_RDPS_RelativeHumidity_IsbL-0875_RLatLon0.09_PT067H.grib2 2026-04-30 03:00 1.1M
20260430T00Z_MSC_RDPS_RelativeHumidity_IsbL-0900_RLatLon0.09_PT067H.grib2 2026-04-30 03:00 1.1M
20260430T00Z_MSC_RDPS_RelativeHumidity_IsbL-0925_RLatLon0.09_PT067H.grib2 2026-04-30 03:00 1.1M
20260430T00Z_MSC_RDPS_RelativeHumidity_IsbL-0950_RLatLon0.09_PT067H.grib2 2026-04-30 03:00 1.1M
20260430T00Z_MSC_RDPS_RelativeHumidity_IsbL-0970_RLatLon0.09_PT067H.grib2 2026-04-30 03:00 1.0M
20260430T00Z_MSC_RDPS_RelativeHumidity_IsbL-0985_RLatLon0.09_PT067H.grib2 2026-04-30 03:00 1.0M
20260430T00Z_MSC_RDPS_RelativeHumidity_IsbL-1000_RLatLon0.09_PT067H.grib2 2026-04-30 03:00 1.0M
20260430T00Z_MSC_RDPS_RelativeHumidity_IsbL-1015_RLatLon0.09_PT067H.grib2 2026-04-30 03:00 1.0M
20260430T00Z_MSC_RDPS_Runoff-Accum_Sfc_RLatLon0.09_PT067H.grib2 2026-04-30 03:00 64K
20260430T00Z_MSC_RDPS_SWEATIndex_Sfc_RLatLon0.09_PT067H.grib2 2026-04-30 03:00 2.4M
20260430T00Z_MSC_RDPS_SeeingIndex_EAtm_RLatLon0.09_PT067H.grib2 2026-04-30 03:00 1.0M
20260430T00Z_MSC_RDPS_SensibleHeatNetFlux_Sfc_RLatLon0.09_PT067H.grib2 2026-04-30 03:00 283K
20260430T00Z_MSC_RDPS_ShowalterIndex_IsbL-0500_RLatLon0.09_PT067H.grib2 2026-04-30 03:00 2.6M
20260430T00Z_MSC_RDPS_SkyTransparencyIndex_EAtm_RLatLon0.09_PT067H.grib2 2026-04-30 03:00 718K
20260430T00Z_MSC_RDPS_Snow-Accum1h_Sfc_RLatLon0.09_PT067H.grib2 2026-04-30 03:00 463K
20260430T00Z_MSC_RDPS_Snow-Accum_Sfc_RLatLon0.09_PT067H.grib2 2026-04-30 03:00 772K
20260430T00Z_MSC_RDPS_SnowDensity_Sfc_RLatLon0.09_PT067H.grib2 2026-04-30 03:00 177K
20260430T00Z_MSC_RDPS_SnowDepth_Sfc_RLatLon0.09_PT067H.grib2 2026-04-30 03:00 666K
20260430T00Z_MSC_RDPS_SoilTemp_DBS-0to10cm_RLatLon0.09_PT067H.grib2 2026-04-30 03:00 244K
20260430T00Z_MSC_RDPS_SoilTemp_Sfc_RLatLon0.09_PT067H.grib2 2026-04-30 03:00 293K
20260430T00Z_MSC_RDPS_SoilVolumetricIceContent_Sfc_RLatLon0.09_PT067H.grib2 2026-04-30 03:00 160K
20260430T00Z_MSC_RDPS_SoilVolumetricWaterContent_DBS-0to10cm_RLatLon0.09_PT067H.grib2 2026-04-30 03:00 272K
20260430T00Z_MSC_RDPS_SoilVolumetricWaterContent_DBS-0to1cm_RLatLon0.09_PT067H.grib2 2026-04-30 03:00 341K
20260430T00Z_MSC_RDPS_SpecificHumidity_AGL-120m_RLatLon0.09_PT067H.grib2 2026-04-30 03:00 500K
20260430T00Z_MSC_RDPS_SpecificHumidity_AGL-2m_RLatLon0.09_PT067H.grib2 2026-04-30 03:00 668K
20260430T00Z_MSC_RDPS_SpecificHumidity_AGL-40m_RLatLon0.09_PT067H.grib2 2026-04-30 03:00 504K
20260430T00Z_MSC_RDPS_SpecificHumidity_AGL-80m_RLatLon0.09_PT067H.grib2 2026-04-30 03:00 502K
20260430T00Z_MSC_RDPS_SpecificHumidity_IsbL-0001_RLatLon0.09_PT067H.grib2 2026-04-30 03:00 371K
20260430T00Z_MSC_RDPS_SpecificHumidity_IsbL-0005_RLatLon0.09_PT067H.grib2 2026-04-30 03:00 354K
20260430T00Z_MSC_RDPS_SpecificHumidity_IsbL-0010_RLatLon0.09_PT067H.grib2 2026-04-30 03:00 389K
20260430T00Z_MSC_RDPS_SpecificHumidity_IsbL-0020_RLatLon0.09_PT067H.grib2 2026-04-30 03:00 374K
20260430T00Z_MSC_RDPS_SpecificHumidity_IsbL-0030_RLatLon0.09_PT067H.grib2 2026-04-30 03:00 471K
20260430T00Z_MSC_RDPS_SpecificHumidity_IsbL-0050_RLatLon0.09_PT067H.grib2 2026-04-30 03:00 473K
20260430T00Z_MSC_RDPS_SpecificHumidity_IsbL-0100_RLatLon0.09_PT067H.grib2 2026-04-30 03:00 415K
20260430T00Z_MSC_RDPS_SpecificHumidity_IsbL-0150_RLatLon0.09_PT067H.grib2 2026-04-30 03:00 450K
20260430T00Z_MSC_RDPS_SpecificHumidity_IsbL-0175_RLatLon0.09_PT067H.grib2 2026-04-30 03:00 432K
20260430T00Z_MSC_RDPS_SpecificHumidity_IsbL-0200_RLatLon0.09_PT067H.grib2 2026-04-30 03:00 444K
20260430T00Z_MSC_RDPS_SpecificHumidity_IsbL-0225_RLatLon0.09_PT067H.grib2 2026-04-30 03:00 448K
20260430T00Z_MSC_RDPS_SpecificHumidity_IsbL-0250_RLatLon0.09_PT067H.grib2 2026-04-30 03:00 552K
20260430T00Z_MSC_RDPS_SpecificHumidity_IsbL-0275_RLatLon0.09_PT067H.grib2 2026-04-30 03:00 467K
20260430T00Z_MSC_RDPS_SpecificHumidity_IsbL-0300_RLatLon0.09_PT067H.grib2 2026-04-30 03:00 535K
20260430T00Z_MSC_RDPS_SpecificHumidity_IsbL-0350_RLatLon0.09_PT067H.grib2 2026-04-30 03:00 532K
20260430T00Z_MSC_RDPS_SpecificHumidity_IsbL-0400_RLatLon0.09_PT067H.grib2 2026-04-30 03:00 516K
20260430T00Z_MSC_RDPS_SpecificHumidity_IsbL-0450_RLatLon0.09_PT067H.grib2 2026-04-30 03:00 566K
20260430T00Z_MSC_RDPS_SpecificHumidity_IsbL-0500_RLatLon0.09_PT067H.grib2 2026-04-30 03:00 501K
20260430T00Z_MSC_RDPS_SpecificHumidity_IsbL-0550_RLatLon0.09_PT067H.grib2 2026-04-30 03:00 576K
20260430T00Z_MSC_RDPS_SpecificHumidity_IsbL-0600_RLatLon0.09_PT067H.grib2 2026-04-30 03:00 633K
20260430T00Z_MSC_RDPS_SpecificHumidity_IsbL-0650_RLatLon0.09_PT067H.grib2 2026-04-30 03:00 551K
20260430T00Z_MSC_RDPS_SpecificHumidity_IsbL-0700_RLatLon0.09_PT067H.grib2 2026-04-30 03:00 598K
20260430T00Z_MSC_RDPS_SpecificHumidity_IsbL-0750_RLatLon0.09_PT067H.grib2 2026-04-30 03:00 657K
20260430T00Z_MSC_RDPS_SpecificHumidity_IsbL-0800_RLatLon0.09_PT067H.grib2 2026-04-30 03:00 739K
20260430T00Z_MSC_RDPS_SpecificHumidity_IsbL-0850_RLatLon0.09_PT067H.grib2 2026-04-30 03:00 810K
20260430T00Z_MSC_RDPS_SpecificHumidity_IsbL-0875_RLatLon0.09_PT067H.grib2 2026-04-30 03:00 837K
20260430T00Z_MSC_RDPS_SpecificHumidity_IsbL-0900_RLatLon0.09_PT067H.grib2 2026-04-30 03:00 712K
20260430T00Z_MSC_RDPS_SpecificHumidity_IsbL-0925_RLatLon0.09_PT067H.grib2 2026-04-30 03:00 711K
20260430T00Z_MSC_RDPS_SpecificHumidity_IsbL-0950_RLatLon0.09_PT067H.grib2 2026-04-30 03:00 714K
20260430T00Z_MSC_RDPS_SpecificHumidity_IsbL-0970_RLatLon0.09_PT067H.grib2 2026-04-30 03:00 705K
20260430T00Z_MSC_RDPS_SpecificHumidity_IsbL-0985_RLatLon0.09_PT067H.grib2 2026-04-30 03:00 699K
20260430T00Z_MSC_RDPS_SpecificHumidity_IsbL-1000_RLatLon0.09_PT067H.grib2 2026-04-30 03:00 694K
20260430T00Z_MSC_RDPS_SpecificHumidity_IsbL-1015_RLatLon0.09_PT067H.grib2 2026-04-30 03:00 682K
20260430T00Z_MSC_RDPS_SpecificHumidity_Sfc_RLatLon0.09_PT067H.grib2 2026-04-30 03:00 345K
20260430T00Z_MSC_RDPS_StormRelativeHelicity_EtaL-10000_RLatLon0.09_PT067H.grib2 2026-04-30 03:00 1.1M
20260430T00Z_MSC_RDPS_StormSeverityIndex_EtaL-10000_RLatLon0.09_PT067H.grib2 2026-04-30 03:00 1.1M
20260430T00Z_MSC_RDPS_Thickness_IsbL-0850to0700_RLatLon0.09_PT067H.grib2 2026-04-30 03:00 178K
20260430T00Z_MSC_RDPS_Thickness_IsbL-1000to0500_RLatLon0.09_PT067H.grib2 2026-04-30 03:00 198K
20260430T00Z_MSC_RDPS_Thickness_IsbL-1000to0850_RLatLon0.09_PT067H.grib2 2026-04-30 03:00 265K
20260430T00Z_MSC_RDPS_TotalCloudCover_Sfc_RLatLon0.09_PT067H.grib2 2026-04-30 03:00 648K
20260430T00Z_MSC_RDPS_TotalTotalsIndex_Sfc_RLatLon0.09_PT067H.grib2 2026-04-30 03:00 2.4M
20260430T00Z_MSC_RDPS_UVIndex-ClearSky_Sfc_RLatLon0.09_PT067H.grib2 2026-04-30 03:00 225K
20260430T00Z_MSC_RDPS_UVIndex_Sfc_RLatLon0.09_PT067H.grib2 2026-04-30 03:00 527K
20260430T00Z_MSC_RDPS_UpwardLongwaveRadiationFlux_NTAtm_RLatLon0.09_PT067H.grib2 2026-04-30 03:00 379K
20260430T00Z_MSC_RDPS_UpwardShortwaveRadiationFlux_NTAtm_RLatLon0.09_PT067H.grib2 2026-04-30 03:00 557K
20260430T00Z_MSC_RDPS_VerticalVelocity_IsbL-0250_RLatLon0.09_PT067H.grib2 2026-04-30 03:00 573K
20260430T00Z_MSC_RDPS_VerticalVelocity_IsbL-0500_RLatLon0.09_PT067H.grib2 2026-04-30 03:00 536K
20260430T00Z_MSC_RDPS_VerticalVelocity_IsbL-0700_RLatLon0.09_PT067H.grib2 2026-04-30 03:00 593K
20260430T00Z_MSC_RDPS_VerticalVelocity_IsbL-0850_RLatLon0.09_PT067H.grib2 2026-04-30 03:00 699K
20260430T00Z_MSC_RDPS_VerticalWindShear_EtaL-6500_RLatLon0.09_PT067H.grib2 2026-04-30 03:00 1.2M
20260430T00Z_MSC_RDPS_WindChill_Sfc_RLatLon0.09_PT067H.grib2 2026-04-30 03:00 1.1M
20260430T00Z_MSC_RDPS_WindDir_AGL-10m_RLatLon0.09_PT067H.grib2 2026-04-30 03:00 953K
20260430T00Z_MSC_RDPS_WindDir_AGL-120m_RLatLon0.09_PT067H.grib2 2026-04-30 03:00 602K
20260430T00Z_MSC_RDPS_WindDir_AGL-40m_RLatLon0.09_PT067H.grib2 2026-04-30 03:00 623K
20260430T00Z_MSC_RDPS_WindDir_AGL-80m_RLatLon0.09_PT067H.grib2 2026-04-30 03:00 611K
20260430T00Z_MSC_RDPS_WindDir_IsbL-0001_RLatLon0.09_PT067H.grib2 2026-04-30 03:00 287K
20260430T00Z_MSC_RDPS_WindDir_IsbL-0005_RLatLon0.09_PT067H.grib2 2026-04-30 03:00 373K
20260430T00Z_MSC_RDPS_WindDir_IsbL-0010_RLatLon0.09_PT067H.grib2 2026-04-30 03:00 385K
20260430T00Z_MSC_RDPS_WindDir_IsbL-0020_RLatLon0.09_PT067H.grib2 2026-04-30 03:00 416K
20260430T00Z_MSC_RDPS_WindDir_IsbL-0030_RLatLon0.09_PT067H.grib2 2026-04-30 03:00 423K
20260430T00Z_MSC_RDPS_WindDir_IsbL-0050_RLatLon0.09_PT067H.grib2 2026-04-30 03:00 416K
20260430T00Z_MSC_RDPS_WindDir_IsbL-0100_RLatLon0.09_PT067H.grib2 2026-04-30 03:00 408K
20260430T00Z_MSC_RDPS_WindDir_IsbL-0150_RLatLon0.09_PT067H.grib2 2026-04-30 03:00 403K
20260430T00Z_MSC_RDPS_WindDir_IsbL-0175_RLatLon0.09_PT067H.grib2 2026-04-30 03:00 422K
20260430T00Z_MSC_RDPS_WindDir_IsbL-0200_RLatLon0.09_PT067H.grib2 2026-04-30 03:00 437K
20260430T00Z_MSC_RDPS_WindDir_IsbL-0225_RLatLon0.09_PT067H.grib2 2026-04-30 03:00 443K
20260430T00Z_MSC_RDPS_WindDir_IsbL-0250_RLatLon0.09_PT067H.grib2 2026-04-30 03:00 446K
20260430T00Z_MSC_RDPS_WindDir_IsbL-0275_RLatLon0.09_PT067H.grib2 2026-04-30 03:00 470K
20260430T00Z_MSC_RDPS_WindDir_IsbL-0300_RLatLon0.09_PT067H.grib2 2026-04-30 03:00 473K
20260430T00Z_MSC_RDPS_WindDir_IsbL-0350_RLatLon0.09_PT067H.grib2 2026-04-30 03:00 493K
20260430T00Z_MSC_RDPS_WindDir_IsbL-0400_RLatLon0.09_PT067H.grib2 2026-04-30 03:00 509K
20260430T00Z_MSC_RDPS_WindDir_IsbL-0450_RLatLon0.09_PT067H.grib2 2026-04-30 03:00 527K
20260430T00Z_MSC_RDPS_WindDir_IsbL-0500_RLatLon0.09_PT067H.grib2 2026-04-30 03:00 535K
20260430T00Z_MSC_RDPS_WindDir_IsbL-0550_RLatLon0.09_PT067H.grib2 2026-04-30 03:00 547K
20260430T00Z_MSC_RDPS_WindDir_IsbL-0600_RLatLon0.09_PT067H.grib2 2026-04-30 03:00 576K
20260430T00Z_MSC_RDPS_WindDir_IsbL-0650_RLatLon0.09_PT067H.grib2 2026-04-30 03:00 610K
20260430T00Z_MSC_RDPS_WindDir_IsbL-0700_RLatLon0.09_PT067H.grib2 2026-04-30 03:00 656K
20260430T00Z_MSC_RDPS_WindDir_IsbL-0750_RLatLon0.09_PT067H.grib2 2026-04-30 03:00 704K
20260430T00Z_MSC_RDPS_WindDir_IsbL-0800_RLatLon0.09_PT067H.grib2 2026-04-30 03:00 771K
20260430T00Z_MSC_RDPS_WindDir_IsbL-0850_RLatLon0.09_PT067H.grib2 2026-04-30 03:00 847K
20260430T00Z_MSC_RDPS_WindDir_IsbL-0875_RLatLon0.09_PT067H.grib2 2026-04-30 03:00 877K
20260430T00Z_MSC_RDPS_WindDir_IsbL-0900_RLatLon0.09_PT067H.grib2 2026-04-30 03:00 895K
20260430T00Z_MSC_RDPS_WindDir_IsbL-0925_RLatLon0.09_PT067H.grib2 2026-04-30 03:00 906K
20260430T00Z_MSC_RDPS_WindDir_IsbL-0950_RLatLon0.09_PT067H.grib2 2026-04-30 03:00 901K
20260430T00Z_MSC_RDPS_WindDir_IsbL-0970_RLatLon0.09_PT067H.grib2 2026-04-30 03:00 910K
20260430T00Z_MSC_RDPS_WindDir_IsbL-0985_RLatLon0.09_PT067H.grib2 2026-04-30 03:00 919K
20260430T00Z_MSC_RDPS_WindDir_IsbL-1000_RLatLon0.09_PT067H.grib2 2026-04-30 03:00 931K
20260430T00Z_MSC_RDPS_WindDir_IsbL-1015_RLatLon0.09_PT067H.grib2 2026-04-30 03:00 945K
20260430T00Z_MSC_RDPS_WindGust-Max_AGL-10m_RLatLon0.09_PT067H.grib2 2026-04-30 03:00 945K
20260430T00Z_MSC_RDPS_WindGust-Min_AGL-10m_RLatLon0.09_PT067H.grib2 2026-04-30 03:00 1.0M
20260430T00Z_MSC_RDPS_WindGust_AGL-10m_RLatLon0.09_PT067H.grib2 2026-04-30 03:00 1.0M
20260430T00Z_MSC_RDPS_WindSpeed_AGL-10m_RLatLon0.09_PT067H.grib2 2026-04-30 03:00 835K
20260430T00Z_MSC_RDPS_WindSpeed_AGL-120m_RLatLon0.09_PT067H.grib2 2026-04-30 03:00 533K
20260430T00Z_MSC_RDPS_WindSpeed_AGL-40m_RLatLon0.09_PT067H.grib2 2026-04-30 03:00 536K
20260430T00Z_MSC_RDPS_WindSpeed_AGL-80m_RLatLon0.09_PT067H.grib2 2026-04-30 03:00 533K
20260430T00Z_MSC_RDPS_WindSpeed_IsbL-0001_RLatLon0.09_PT067H.grib2 2026-04-30 03:00 253K
20260430T00Z_MSC_RDPS_WindSpeed_IsbL-0005_RLatLon0.09_PT067H.grib2 2026-04-30 03:00 347K
20260430T00Z_MSC_RDPS_WindSpeed_IsbL-0010_RLatLon0.09_PT067H.grib2 2026-04-30 03:00 396K
20260430T00Z_MSC_RDPS_WindSpeed_IsbL-0020_RLatLon0.09_PT067H.grib2 2026-04-30 03:00 318K
20260430T00Z_MSC_RDPS_WindSpeed_IsbL-0030_RLatLon0.09_PT067H.grib2 2026-04-30 03:00 317K
20260430T00Z_MSC_RDPS_WindSpeed_IsbL-0050_RLatLon0.09_PT067H.grib2 2026-04-30 03:00 449K
20260430T00Z_MSC_RDPS_WindSpeed_IsbL-0100_RLatLon0.09_PT067H.grib2 2026-04-30 03:00 471K
20260430T00Z_MSC_RDPS_WindSpeed_IsbL-0150_RLatLon0.09_PT067H.grib2 2026-04-30 03:00 378K
20260430T00Z_MSC_RDPS_WindSpeed_IsbL-0175_RLatLon0.09_PT067H.grib2 2026-04-30 03:00 424K
20260430T00Z_MSC_RDPS_WindSpeed_IsbL-0200_RLatLon0.09_PT067H.grib2 2026-04-30 03:00 439K
20260430T00Z_MSC_RDPS_WindSpeed_IsbL-0225_RLatLon0.09_PT067H.grib2 2026-04-30 03:00 446K
20260430T00Z_MSC_RDPS_WindSpeed_IsbL-0250_RLatLon0.09_PT067H.grib2 2026-04-30 03:00 448K
20260430T00Z_MSC_RDPS_WindSpeed_IsbL-0275_RLatLon0.09_PT067H.grib2 2026-04-30 03:00 466K
20260430T00Z_MSC_RDPS_WindSpeed_IsbL-0300_RLatLon0.09_PT067H.grib2 2026-04-30 03:00 464K
20260430T00Z_MSC_RDPS_WindSpeed_IsbL-0350_RLatLon0.09_PT067H.grib2 2026-04-30 03:00 473K
20260430T00Z_MSC_RDPS_WindSpeed_IsbL-0400_RLatLon0.09_PT067H.grib2 2026-04-30 03:00 477K
20260430T00Z_MSC_RDPS_WindSpeed_IsbL-0450_RLatLon0.09_PT067H.grib2 2026-04-30 03:00 460K
20260430T00Z_MSC_RDPS_WindSpeed_IsbL-0500_RLatLon0.09_PT067H.grib2 2026-04-30 03:00 458K
20260430T00Z_MSC_RDPS_WindSpeed_IsbL-0550_RLatLon0.09_PT067H.grib2 2026-04-30 03:00 578K
20260430T00Z_MSC_RDPS_WindSpeed_IsbL-0600_RLatLon0.09_PT067H.grib2 2026-04-30 03:00 588K
20260430T00Z_MSC_RDPS_WindSpeed_IsbL-0650_RLatLon0.09_PT067H.grib2 2026-04-30 03:00 608K
20260430T00Z_MSC_RDPS_WindSpeed_IsbL-0700_RLatLon0.09_PT067H.grib2 2026-04-30 03:00 678K
20260430T00Z_MSC_RDPS_WindSpeed_IsbL-0750_RLatLon0.09_PT067H.grib2 2026-04-30 03:00 709K
20260430T00Z_MSC_RDPS_WindSpeed_IsbL-0800_RLatLon0.09_PT067H.grib2 2026-04-30 03:00 754K
20260430T00Z_MSC_RDPS_WindSpeed_IsbL-0850_RLatLon0.09_PT067H.grib2 2026-04-30 03:00 809K
20260430T00Z_MSC_RDPS_WindSpeed_IsbL-0875_RLatLon0.09_PT067H.grib2 2026-04-30 03:00 785K
20260430T00Z_MSC_RDPS_WindSpeed_IsbL-0900_RLatLon0.09_PT067H.grib2 2026-04-30 03:00 847K
20260430T00Z_MSC_RDPS_WindSpeed_IsbL-0925_RLatLon0.09_PT067H.grib2 2026-04-30 03:00 859K
20260430T00Z_MSC_RDPS_WindSpeed_IsbL-0950_RLatLon0.09_PT067H.grib2 2026-04-30 03:00 858K
20260430T00Z_MSC_RDPS_WindSpeed_IsbL-0970_RLatLon0.09_PT067H.grib2 2026-04-30 03:00 857K
20260430T00Z_MSC_RDPS_WindSpeed_IsbL-0985_RLatLon0.09_PT067H.grib2 2026-04-30 03:00 853K
20260430T00Z_MSC_RDPS_WindSpeed_IsbL-1000_RLatLon0.09_PT067H.grib2 2026-04-30 03:00 847K
20260430T00Z_MSC_RDPS_WindSpeed_IsbL-1015_RLatLon0.09_PT067H.grib2 2026-04-30 03:00 836K
20260430T00Z_MSC_RDPS_WindU_AGL-10m_RLatLon0.09_PT067H.grib2 2026-04-30 03:00 431K
20260430T00Z_MSC_RDPS_WindU_AGL-120m_RLatLon0.09_PT067H.grib2 2026-04-30 03:00 532K
20260430T00Z_MSC_RDPS_WindU_AGL-40m_RLatLon0.09_PT067H.grib2 2026-04-30 03:00 533K
20260430T00Z_MSC_RDPS_WindU_AGL-80m_RLatLon0.09_PT067H.grib2 2026-04-30 03:00 532K
20260430T00Z_MSC_RDPS_WindU_IsbL-0001_RLatLon0.09_PT067H.grib2 2026-04-30 03:00 293K
20260430T00Z_MSC_RDPS_WindU_IsbL-0005_RLatLon0.09_PT067H.grib2 2026-04-30 03:00 284K
20260430T00Z_MSC_RDPS_WindU_IsbL-0010_RLatLon0.09_PT067H.grib2 2026-04-30 03:00 294K
20260430T00Z_MSC_RDPS_WindU_IsbL-0020_RLatLon0.09_PT067H.grib2 2026-04-30 03:00 311K
20260430T00Z_MSC_RDPS_WindU_IsbL-0030_RLatLon0.09_PT067H.grib2 2026-04-30 03:00 351K
20260430T00Z_MSC_RDPS_WindU_IsbL-0050_RLatLon0.09_PT067H.grib2 2026-04-30 03:00 375K
20260430T00Z_MSC_RDPS_WindU_IsbL-0100_RLatLon0.09_PT067H.grib2 2026-04-30 03:00 427K
20260430T00Z_MSC_RDPS_WindU_IsbL-0150_RLatLon0.09_PT067H.grib2 2026-04-30 03:00 393K
20260430T00Z_MSC_RDPS_WindU_IsbL-0175_RLatLon0.09_PT067H.grib2 2026-04-30 03:00 416K
20260430T00Z_MSC_RDPS_WindU_IsbL-0200_RLatLon0.09_PT067H.grib2 2026-04-30 03:00 431K
20260430T00Z_MSC_RDPS_WindU_IsbL-0225_RLatLon0.09_PT067H.grib2 2026-04-30 03:00 339K
20260430T00Z_MSC_RDPS_WindU_IsbL-0250_RLatLon0.09_PT067H.grib2 2026-04-30 03:00 340K
20260430T00Z_MSC_RDPS_WindU_IsbL-0275_RLatLon0.09_PT067H.grib2 2026-04-30 03:00 355K
20260430T00Z_MSC_RDPS_WindU_IsbL-0300_RLatLon0.09_PT067H.grib2 2026-04-30 03:00 352K
20260430T00Z_MSC_RDPS_WindU_IsbL-0350_RLatLon0.09_PT067H.grib2 2026-04-30 03:00 360K
20260430T00Z_MSC_RDPS_WindU_IsbL-0400_RLatLon0.09_PT067H.grib2 2026-04-30 03:00 364K
20260430T00Z_MSC_RDPS_WindU_IsbL-0450_RLatLon0.09_PT067H.grib2 2026-04-30 03:00 466K
20260430T00Z_MSC_RDPS_WindU_IsbL-0500_RLatLon0.09_PT067H.grib2 2026-04-30 03:00 466K
20260430T00Z_MSC_RDPS_WindU_IsbL-0550_RLatLon0.09_PT067H.grib2 2026-04-30 03:00 470K
20260430T00Z_MSC_RDPS_WindU_IsbL-0600_RLatLon0.09_PT067H.grib2 2026-04-30 03:00 461K
20260430T00Z_MSC_RDPS_WindU_IsbL-0650_RLatLon0.09_PT067H.grib2 2026-04-30 03:00 480K
20260430T00Z_MSC_RDPS_WindU_IsbL-0700_RLatLon0.09_PT067H.grib2 2026-04-30 03:00 504K
20260430T00Z_MSC_RDPS_WindU_IsbL-0750_RLatLon0.09_PT067H.grib2 2026-04-30 03:00 532K
20260430T00Z_MSC_RDPS_WindU_IsbL-0800_RLatLon0.09_PT067H.grib2 2026-04-30 03:00 570K
20260430T00Z_MSC_RDPS_WindU_IsbL-0850_RLatLon0.09_PT067H.grib2 2026-04-30 03:00 618K
20260430T00Z_MSC_RDPS_WindU_IsbL-0875_RLatLon0.09_PT067H.grib2 2026-04-30 03:00 638K
20260430T00Z_MSC_RDPS_WindU_IsbL-0900_RLatLon0.09_PT067H.grib2 2026-04-30 03:00 649K
20260430T00Z_MSC_RDPS_WindU_IsbL-0925_RLatLon0.09_PT067H.grib2 2026-04-30 03:00 657K
20260430T00Z_MSC_RDPS_WindU_IsbL-0950_RLatLon0.09_PT067H.grib2 2026-04-30 03:00 653K
20260430T00Z_MSC_RDPS_WindU_IsbL-0970_RLatLon0.09_PT067H.grib2 2026-04-30 03:00 655K
20260430T00Z_MSC_RDPS_WindU_IsbL-0985_RLatLon0.09_PT067H.grib2 2026-04-30 03:00 791K
20260430T00Z_MSC_RDPS_WindU_IsbL-1000_RLatLon0.09_PT067H.grib2 2026-04-30 03:00 785K
20260430T00Z_MSC_RDPS_WindU_IsbL-1015_RLatLon0.09_PT067H.grib2 2026-04-30 03:00 776K
20260430T00Z_MSC_RDPS_WindV_AGL-10m_RLatLon0.09_PT067H.grib2 2026-04-30 03:00 432K
20260430T00Z_MSC_RDPS_WindV_AGL-120m_RLatLon0.09_PT067H.grib2 2026-04-30 03:00 530K
20260430T00Z_MSC_RDPS_WindV_AGL-40m_RLatLon0.09_PT067H.grib2 2026-04-30 03:00 533K
20260430T00Z_MSC_RDPS_WindV_AGL-80m_RLatLon0.09_PT067H.grib2 2026-04-30 03:00 531K
20260430T00Z_MSC_RDPS_WindV_IsbL-0001_RLatLon0.09_PT067H.grib2 2026-04-30 03:00 294K
20260430T00Z_MSC_RDPS_WindV_IsbL-0005_RLatLon0.09_PT067H.grib2 2026-04-30 03:00 286K
20260430T00Z_MSC_RDPS_WindV_IsbL-0010_RLatLon0.09_PT067H.grib2 2026-04-30 03:00 388K
20260430T00Z_MSC_RDPS_WindV_IsbL-0020_RLatLon0.09_PT067H.grib2 2026-04-30 03:00 315K
20260430T00Z_MSC_RDPS_WindV_IsbL-0030_RLatLon0.09_PT067H.grib2 2026-04-30 03:00 314K
20260430T00Z_MSC_RDPS_WindV_IsbL-0050_RLatLon0.09_PT067H.grib2 2026-04-30 03:00 340K
20260430T00Z_MSC_RDPS_WindV_IsbL-0100_RLatLon0.09_PT067H.grib2 2026-04-30 03:00 424K
20260430T00Z_MSC_RDPS_WindV_IsbL-0150_RLatLon0.09_PT067H.grib2 2026-04-30 03:00 392K
20260430T00Z_MSC_RDPS_WindV_IsbL-0175_RLatLon0.09_PT067H.grib2 2026-04-30 03:00 416K
20260430T00Z_MSC_RDPS_WindV_IsbL-0200_RLatLon0.09_PT067H.grib2 2026-04-30 03:00 334K
20260430T00Z_MSC_RDPS_WindV_IsbL-0225_RLatLon0.09_PT067H.grib2 2026-04-30 03:00 337K
20260430T00Z_MSC_RDPS_WindV_IsbL-0250_RLatLon0.09_PT067H.grib2 2026-04-30 03:00 339K
20260430T00Z_MSC_RDPS_WindV_IsbL-0275_RLatLon0.09_PT067H.grib2 2026-04-30 03:00 354K
20260430T00Z_MSC_RDPS_WindV_IsbL-0300_RLatLon0.09_PT067H.grib2 2026-04-30 03:00 351K
20260430T00Z_MSC_RDPS_WindV_IsbL-0350_RLatLon0.09_PT067H.grib2 2026-04-30 03:00 357K
20260430T00Z_MSC_RDPS_WindV_IsbL-0400_RLatLon0.09_PT067H.grib2 2026-04-30 03:00 359K
20260430T00Z_MSC_RDPS_WindV_IsbL-0450_RLatLon0.09_PT067H.grib2 2026-04-30 03:00 463K
20260430T00Z_MSC_RDPS_WindV_IsbL-0500_RLatLon0.09_PT067H.grib2 2026-04-30 03:00 463K
20260430T00Z_MSC_RDPS_WindV_IsbL-0550_RLatLon0.09_PT067H.grib2 2026-04-30 03:00 466K
20260430T00Z_MSC_RDPS_WindV_IsbL-0600_RLatLon0.09_PT067H.grib2 2026-04-30 03:00 476K
20260430T00Z_MSC_RDPS_WindV_IsbL-0650_RLatLon0.09_PT067H.grib2 2026-04-30 03:00 493K
20260430T00Z_MSC_RDPS_WindV_IsbL-0700_RLatLon0.09_PT067H.grib2 2026-04-30 03:00 516K
20260430T00Z_MSC_RDPS_WindV_IsbL-0750_RLatLon0.09_PT067H.grib2 2026-04-30 03:00 543K
20260430T00Z_MSC_RDPS_WindV_IsbL-0800_RLatLon0.09_PT067H.grib2 2026-04-30 03:00 567K
20260430T00Z_MSC_RDPS_WindV_IsbL-0850_RLatLon0.09_PT067H.grib2 2026-04-30 03:00 615K
20260430T00Z_MSC_RDPS_WindV_IsbL-0875_RLatLon0.09_PT067H.grib2 2026-04-30 03:00 635K
20260430T00Z_MSC_RDPS_WindV_IsbL-0900_RLatLon0.09_PT067H.grib2 2026-04-30 03:00 646K
20260430T00Z_MSC_RDPS_WindV_IsbL-0925_RLatLon0.09_PT067H.grib2 2026-04-30 03:00 654K
20260430T00Z_MSC_RDPS_WindV_IsbL-0950_RLatLon0.09_PT067H.grib2 2026-04-30 03:00 650K
20260430T00Z_MSC_RDPS_WindV_IsbL-0970_RLatLon0.09_PT067H.grib2 2026-04-30 03:00 792K
20260430T00Z_MSC_RDPS_WindV_IsbL-0985_RLatLon0.09_PT067H.grib2 2026-04-30 03:00 789K
20260430T00Z_MSC_RDPS_WindV_IsbL-1000_RLatLon0.09_PT067H.grib2 2026-04-30 03:00 784K
20260430T00Z_MSC_RDPS_WindV_IsbL-1015_RLatLon0.09_PT067H.grib2 2026-04-30 03:00 823K